This is the latest recevied weather packets stored in our database for station/object VA2RBQ-7. If no packets are shown the sender has not sent any weather packets the latest 10 day(s).
| Time | Temp. | Humidity | Pressure | Rain* | Wind** | Luminosity | Snow |
|---|---|---|---|---|---|---|---|
| 1788107912 | 7.78° C | 67% | 1014.4 hPa | 0.25 mm | - | - | - |
| 1788107609 | 7.78° C | 67% | 1014.4 hPa | 0.25 mm | - | - | - |
| 1788107307 | 7.78° C | 67% | 1014.4 hPa | 0.25 mm | - | - | - |
| 1788107004 | 7.78° C | 68% | 1014.4 hPa | 0.25 mm | - | - | - |
| 1788106701 | 7.22° C | 68% | 1014.4 hPa | 0.25 mm | - | - | - |
| 1788106399 | 7.78° C | 68% | 1014.4 hPa | 0.25 mm | - | - | - |
| 1788106096 | 8.33° C | 68% | 1014.4 hPa | 0.25 mm | - | - | - |
| 1788105800 | 8.33° C | 68% | 1014.5 hPa | 0.25 mm | - | - | - |
| 1788105491 | 9.44° C | 68% | 1014.6 hPa | 0.25 mm | - | - | - |
| 1788105188 | 8.89° C | 68% | 1014.5 hPa | 0.25 mm | - | - | - |
| 1788104886 | 8.33° C | 68% | 1014.7 hPa | 0.25 mm | - | - | - |
| 1788104583 | 8.89° C | 68% | 1014.7 hPa | 0.25 mm | - | - | - |
| 1788104281 | 7.78° C | 68% | 1014.8 hPa | 0.25 mm | - | - | - |
| 1788103978 | 7.78° C | 68% | 1014.8 hPa | 0.25 mm | - | - | - |
| 1788103683 | 8.33° C | 68% | 1014.7 hPa | 0.25 mm | - | - | - |
| 1788103373 | 8.33° C | 68% | 1014.8 hPa | 0.25 mm | - | - | - |
| 1788103070 | 7.78° C | 68% | 1014.8 hPa | 0.25 mm | - | - | - |
| 1788102768 | 7.22° C | 68% | 1014.7 hPa | 0.25 mm | - | - | - |
| 1788102465 | 7.78° C | 68% | 1014.9 hPa | 0.25 mm | - | - | - |
| 1788102162 | 7.78° C | 68% | 1014.9 hPa | 0.25 mm | - | - | - |
| 1788101860 | 7.78° C | 68% | 1014.8 hPa | 0.25 mm | - | - | - |
| 1788101557 | 7.78° C | 68% | 1014.9 hPa | 0.25 mm | - | - | - |
| 1788101255 | 7.78° C | 68% | 1014.9 hPa | 0.25 mm | - | - | - |
| 1788100952 | 7.78° C | 67% | 1015 hPa | 0.25 mm | - | - | - |
| 1788100649 | 7.22° C | 67% | 1014.9 hPa | 0.25 mm | - | - | - |
* Rain since midnight (hover to see other rain measurements)
** Current wind speed in m/s (hover to see current wind gust speed)